Time,TemperatureF,DewpointF,PressureIn,WindDirection,WindDirectionDegrees,WindSpeedMPH,WindSpeedGustMPH,Humidity,HourlyPrecipIn,Conditions,Clouds,dailyrainin,SoftwareType,DateUTC
2013-02-08 14:54:00,48.3,39.3,29.75,SW,231,7.0,7.0,71,0.00,,,0.12,Wunderground v.1.15,2013-02-08 19:54:00,
2013-02-08 14:59:00,-999.9,-99.9,-32.77,North,32767,-999.0,13.0,255,-99.99,,,0.00,Wunderground v.1.15,2013-02-08 19:59:00,
2013-02-08 15:01:00,-999.9,-99.9,-32.77,North,32767,-999.0,13.0,255,-99.99,,,0.00,Wunderground v.1.15,2013-02-08 20:01:00,
2013-02-08 15:02:00,-999.9,-99.9,-32.77,North,32767,-999.0,13.0,255,-99.99,,,0.00,Wunderground v.1.15,2013-02-08 20:02:00,
2013-02-08 15:08:00,-999.9,-99.9,-32.77,North,32767,-999.0,13.0,255,-99.99,,,0.00,Wunderground v.1.15,2013-02-08 20:08:00,
2013-02-08 15:14:00,49.1,39.4,29.74,West,262,3.0,13.0,69,0.00,,,0.00,Wunderground v.1.15,2013-02-08 20:14:00,
2013-02-08 15:19:00,49.0,39.3,29.75,WNW,289,5.0,13.0,69,0.00,,,0.00,Wunderground v.1.15,2013-02-08 20:19:00,
2013-02-08 15:25:00,48.7,39.0,29.75,West,273,6.0,13.0,69,0.00,,,0.00,Wunderground v.1.15,2013-02-08 20:25:00,
2013-02-08 15:30:00,48.7,39.0,29.75,NW,316,5.0,5.0,69,0.00,,,0.00,Wunderground v.1.15,2013-02-08 20:30:00,
2013-02-08 16:35:00,46.5,33.8,29.80,WNW,288,10.0,13.0,61,0.00,,,0.00,Wunderground v.1.15,2013-02-08 21:35:00,
2013-02-08 16:40:00,45.8,30.5,29.80,NNW,339,11.0,18.0,55,0.00,,,0.01,Wunderground v.1.15,2013-02-08 21:40:00,
2013-02-08 16:46:00,45.0,30.2,29.81,WNW,283,12.0,13.0,56,0.00,,,0.01,Wunderground v.1.15,2013-02-08 21:46:00,
2013-02-08 16:52:00,44.2,29.0,29.81,WNW,294,13.0,20.0,55,0.00,,,0.01,Wunderground v.1.15,2013-02-08 21:52:00,
2013-02-08 16:57:00,43.7,29.5,29.82,WNW,291,14.0,14.0,57,0.00,,,0.01,Wunderground v.1.15,2013-02-08 21:57:00,
2013-02-08 17:02:00,43.4,29.2,29.82,NW,318,13.0,15.0,57,0.00,,,0.01,Wunderground v.1.15,2013-02-08 22:02:00,
2013-02-08 17:08:00,43.2,29.0,29.82,North,354,14.0,18.0,57,0.00,,,0.01,Wunderground v.1.15,2013-02-08 22:08:00,
2013-02-08 17:14:00,42.8,29.0,29.83,North,4,14.0,19.0,58,0.00,,,0.01,Wunderground v.1.15,2013-02-08 22:14:00,
2013-02-08 17:20:00,42.5,28.3,29.83,NW,314,12.0,24.0,57,0.00,,,0.01,Wunderground v.1.15,2013-02-08 22:20:00,
2013-02-08 17:25:00,42.2,28.5,29.83,NW,324,13.0,24.0,58,0.00,,,0.01,Wunderground v.1.15,2013-02-08 22:25:00,
2013-02-08 17:31:00,41.9,28.6,29.84,WNW,291,12.0,13.0,59,0.00,,,0.01,Wunderground v.1.15,2013-02-08 22:31:00,
2013-02-08 17:37:00,41.5,28.2,29.84,NW,309,11.0,17.0,59,0.00,,,0.01,Wunderground v.1.15,2013-02-08 22:37:00,
2013-02-08 17:43:00,41.3,28.4,29.84,NW,322,9.0,13.0,60,0.00,,,0.01,Wunderground v.1.15,2013-02-08 22:43:00,
2013-02-08 17:49:00,41.1,28.3,29.84,WNW,299,10.0,13.0,60,0.00,,,0.01,Wunderground v.1.15,2013-02-08 22:49:00,
2013-02-08 17:55:00,40.9,28.5,29.84,NNW,336,9.0,13.0,61,0.00,,,0.01,Wunderground v.1.15,2013-02-08 22:55:00,
2013-02-08 18:00:00,40.8,28.4,29.84,NW,320,8.0,8.0,61,0.00,,,0.01,Wunderground v.1.15,2013-02-08 23:00:00,
2013-02-08 18:05:00,40.6,28.6,29.84,NNW,338,6.0,13.0,62,0.00,,,0.01,Wunderground v.1.15,2013-02-08 23:05:00,
2013-02-08 18:10:00,40.4,28.0,29.84,NW,312,5.0,13.0,61,0.00,,,0.01,Wunderground v.1.15,2013-02-08 23:10:00,
2013-02-08 18:16:00,40.6,27.8,29.85,West,262,8.0,14.0,60,0.00,,,0.01,Wunderground v.1.15,2013-02-08 23:16:00,
2013-02-08 18:22:00,40.5,27.7,29.85,West,269,10.0,13.0,60,0.00,,,0.01,Wunderground v.1.15,2013-02-08 23:22:00,
2013-02-08 18:27:00,40.4,27.6,29.85,WNW,294,9.0,19.0,60,0.00,,,0.01,Wunderground v.1.15,2013-02-08 23:27:00,
2013-02-08 18:32:00,40.3,27.5,29.85,West,272,10.0,17.0,60,0.00,,,0.01,Wunderground v.1.15,2013-02-08 23:32:00,
2013-02-08 18:38:00,40.1,27.3,29.85,South,179,10.0,17.0,60,0.00,,,0.01,Wunderground v.1.15,2013-02-08 23:38:00,
2013-02-08 18:44:00,40.1,27.3,29.85,NW,323,12.0,20.0,60,0.00,,,0.01,Wunderground v.1.15,2013-02-08 23:44:00,
2013-02-08 18:50:00,39.9,27.1,29.86,West,273,13.0,13.0,60,0.00,,,0.01,Wunderground v.1.15,2013-02-08 23:50:00,
2013-02-08 18:55:00,39.6,27.2,29.86,West,277,11.0,16.0,61,0.00,,,0.01,Wunderground v.1.15,2013-02-08 23:55:00,
2013-02-08 19:00:00,39.4,27.1,29.87,NW,316,9.0,18.0,61,0.00,,,0.01,Wunderground v.1.15,2013-02-09 00:00:00,
2013-02-08 19:06:00,39.3,27.0,29.87,WNW,297,9.0,18.0,61,0.00,,,0.01,Wunderground v.1.15,2013-02-09 00:06:00,
2013-02-08 19:12:00,39.2,26.9,29.88,West,278,10.0,14.0,61,0.00,,,0.01,Wunderground v.1.15,2013-02-09 00:12:00,
2013-02-08 19:17:00,39.1,26.8,29.88,North,354,11.0,14.0,61,0.00,,,0.01,Wunderground v.1.15,2013-02-09 00:17:00,
2013-02-08 19:23:00,38.9,26.6,29.89,WNW,287,10.0,14.0,61,0.00,,,0.01,Wunderground v.1.15,2013-02-09 00:23:00,
2013-02-08 19:29:00,38.6,25.9,29.89,WNW,293,11.0,22.0,60,0.00,,,0.01,Wunderground v.1.15,2013-02-09 00:29:00,
2013-02-08 19:35:00,38.4,26.1,29.89,West,280,11.0,13.0,61,0.00,,,0.01,Wunderground v.1.15,2013-02-09 00:35:00,
2013-02-08 19:40:00,38.2,25.9,29.89,WNW,288,8.0,8.0,61,0.00,,,0.01,Wunderground v.1.15,2013-02-09 00:40:00,
2013-02-08 19:46:00,37.8,25.9,29.89,WNW,293,6.0,13.0,62,0.00,,,0.01,Wunderground v.1.15,2013-02-09 00:46:00,
2013-02-08 19:51:00,37.5,25.3,29.89,West,274,6.0,13.0,61,0.00,,,0.01,Wunderground v.1.15,2013-02-09 00:51:00,
2013-02-08 19:57:00,37.5,25.3,29.89,WNW,301,6.0,13.0,61,0.00,,,0.01,Wunderground v.1.15,2013-02-09 00:57:00,
2013-02-08 20:02:00,37.4,24.8,29.90,WNW,283,7.0,13.0,60,0.00,,,0.01,Wunderground v.1.15,2013-02-09 01:02:00,
2013-02-08 20:08:00,37.2,25.0,29.90,WNW,289,6.0,13.0,61,0.00,,,0.01,Wunderground v.1.15,2013-02-09 01:08:00,
2013-02-08 20:13:00,36.9,25.1,29.90,WNW,290,5.0,13.0,62,0.00,,,0.01,Wunderground v.1.15,2013-02-09 01:13:00,
2013-02-08 20:19:00,37.2,25.0,29.91,West,269,7.0,13.0,61,0.00,,,0.01,Wunderground v.1.15,2013-02-09 01:19:00,
2013-02-08 20:24:00,37.4,25.2,29.91,WNW,288,10.0,13.0,61,0.00,,,0.01,Wunderground v.1.15,2013-02-09 01:24:00,
2013-02-08 20:30:00,37.1,24.5,29.91,WNW,285,9.0,13.0,60,0.00,,,0.01,Wunderground v.1.15,2013-02-09 01:30:00,
2013-02-08 20:35:00,37.2,24.6,29.91,West,264,10.0,15.0,60,0.00,,,0.01,Wunderground v.1.15,2013-02-09 01:35:00,
2013-02-08 20:41:00,36.9,24.3,29.91,WNW,294,10.0,16.0,60,0.00,,,0.01,Wunderground v.1.15,2013-02-09 01:41:00,
2013-02-08 20:47:00,36.8,24.6,29.91,West,280,8.0,16.0,61,0.00,,,0.01,Wunderground v.1.15,2013-02-09 01:47:00,
2013-02-08 20:52:00,36.7,24.1,29.91,West,268,8.0,13.0,60,0.00,,,0.01,Wunderground v.1.15,2013-02-09 01:52:00,
2013-02-08 20:58:00,36.5,23.9,29.91,West,266,9.0,13.0,60,0.00,,,0.01,Wunderground v.1.15,2013-02-09 01:58:00,
2013-02-08 21:04:00,36.3,24.1,29.92,NW,324,9.0,13.0,61,0.00,,,0.01,Wunderground v.1.15,2013-02-09 02:04:00,
2013-02-08 21:09:00,36.1,23.5,29.92,NW,308,8.0,16.0,60,0.00,,,0.01,Wunderground v.1.15,2013-02-09 02:09:00,
2013-02-08 21:15:00,36.0,23.8,29.92,WNW,303,7.0,13.0,61,0.00,,,0.01,Wunderground v.1.15,2013-02-09 02:15:00,
2013-02-08 21:21:00,36.1,23.1,29.92,West,263,8.0,13.0,59,0.00,,,0.01,Wunderground v.1.15,2013-02-09 02:21:00,
2013-02-08 21:26:00,36.2,23.2,29.92,West,270,10.0,13.0,59,0.00,,,0.01,Wunderground v.1.15,2013-02-09 02:26:00,
2013-02-08 21:32:00,35.9,23.4,29.92,West,279,9.0,13.0,60,0.00,,,0.01,Wunderground v.1.15,2013-02-09 02:32:00,
2013-02-08 21:38:00,35.5,23.4,29.92,West,274,6.0,13.0,61,0.00,,,0.01,Wunderground v.1.15,2013-02-09 02:38:00,
2013-02-08 21:44:00,35.5,23.0,29.92,NW,312,6.0,13.0,60,0.00,,,0.01,Wunderground v.1.15,2013-02-09 02:44:00,
2013-02-08 21:49:00,35.7,23.2,29.92,WNW,283,8.0,13.0,60,0.00,,,0.01,Wunderground v.1.15,2013-02-09 02:49:00,
2013-02-08 21:55:00,35.8,22.9,29.93,NW,323,9.0,13.0,59,0.00,,,0.01,Wunderground v.1.15,2013-02-09 02:55:00,
2013-02-08 22:00:00,35.8,22.9,29.93,WNW,283,9.0,9.0,59,0.00,,,0.01,Wunderground v.1.15,2013-02-09 03:00:00,
2013-02-08 22:06:00,35.7,22.8,29.93,West,280,10.0,13.0,59,0.00,,,0.01,Wunderground v.1.15,2013-02-09 03:06:00,
2013-02-08 22:12:00,35.8,22.5,29.94,NW,313,10.0,18.0,58,0.00,,,0.01,Wunderground v.1.15,2013-02-09 03:12:00,
2013-02-08 22:18:00,35.7,22.8,29.94,WNW,283,9.0,18.0,59,0.00,,,0.01,Wunderground v.1.15,2013-02-09 03:18:00,
2013-02-08 22:24:00,35.5,22.6,29.94,WNW,298,7.0,13.0,59,0.00,,,0.01,Wunderground v.1.15,2013-02-09 03:24:00,
2013-02-08 22:29:00,35.6,22.7,29.94,NW,323,9.0,14.0,59,0.00,,,0.01,Wunderground v.1.15,2013-02-09 03:29:00,
2013-02-08 22:35:00,35.6,21.9,29.95,NNW,328,11.0,23.0,57,0.00,,,0.01,Wunderground v.1.15,2013-02-09 03:35:00,
2013-02-08 22:40:00,35.6,21.9,29.95,WNW,287,12.0,17.0,57,0.00,,,0.01,Wunderground v.1.15,2013-02-09 03:40:00,
2013-02-08 22:46:00,35.5,21.8,29.95,WNW,298,12.0,17.0,57,0.00,,,0.01,Wunderground v.1.15,2013-02-09 03:46:00,
2013-02-08 22:52:00,35.3,22.0,29.95,West,262,12.0,21.0,58,0.00,,,0.01,Wunderground v.1.15,2013-02-09 03:52:00,
2013-02-08 22:57:00,35.1,21.8,29.96,NW,320,12.0,21.0,58,0.00,,,0.01,Wunderground v.1.15,2013-02-09 03:57:00,
2013-02-08 23:02:00,34.9,22.0,29.96,WSW,257,11.0,15.0,59,0.00,,,0.01,Wunderground v.1.15,2013-02-09 04:02:00,
2013-02-08 23:08:00,34.7,21.8,29.97,West,274,11.0,16.0,59,0.00,,,0.01,Wunderground v.1.15,2013-02-09 04:08:00,
2013-02-08 23:14:00,34.7,21.4,29.97,WNW,301,12.0,21.0,58,0.00,,,0.01,Wunderground v.1.15,2013-02-09 04:14:00,
2013-02-08 23:20:00,34.5,21.6,29.97,NNW,339,11.0,23.0,59,0.00,,,0.01,Wunderground v.1.15,2013-02-09 04:20:00,
2013-02-08 23:25:00,34.5,21.6,29.98,West,272,11.0,23.0,59,0.00,,,0.01,Wunderground v.1.15,2013-02-09 04:25:00,
2013-02-08 23:30:00,34.4,21.5,29.98,West,261,12.0,12.0,59,0.00,,,0.01,Wunderground v.1.15,2013-02-09 04:30:00,
2013-02-08 23:36:00,34.4,21.5,29.98,NW,314,11.0,21.0,59,0.00,,,0.01,Wunderground v.1.15,2013-02-09 04:36:00,
2013-02-08 23:42:00,34.4,21.5,29.98,WNW,288,11.0,18.0,59,0.00,,,0.01,Wunderground v.1.15,2013-02-09 04:42:00,
2013-02-08 23:47:00,34.4,21.5,29.98,WNW,301,11.0,18.0,59,0.00,,,0.01,Wunderground v.1.15,2013-02-09 04:47:00,
2013-02-08 23:53:00,34.5,21.2,29.98,NW,320,11.0,14.0,58,0.00,,,0.01,Wunderground v.1.15,2013-02-09 04:53:00,
2013-02-08 23:58:00,34.3,21.4,29.99,North,354,10.0,14.0,59,0.00,,,0.01,Wunderground v.1.15,2013-02-09 04:58:00,